Time,TemperatureF,DewpointF,PressureIn,WindDirection,WindDirectionDegrees,WindSpeedMPH,WindSpeedGustMPH,Humidity,HourlyPrecipIn,Conditions,Clouds,dailyrainin,SoftwareType,DateUTC
2013-11-06 00:11:00,43.9,40.0,30.16,SSW,205,0.0,0.0,87,0.00,,,0.00,weatherlink.com 1.10,2013-11-06 08:11:00,
2013-11-06 00:26:00,43.6,40.0,30.17,SSW,205,0.0,0.0,87,0.00,,,0.00,weatherlink.com 1.10,2013-11-06 08:26:00,
2013-11-06 00:42:00,43.4,40.0,30.17,SSW,205,0.0,0.0,88,0.00,,,0.00,weatherlink.com 1.10,2013-11-06 08:42:00,
2013-11-06 00:57:00,43.5,40.0,30.17,SSW,205,0.0,0.0,88,0.00,,,0.00,weatherlink.com 1.10,2013-11-06 08:57:00,
2013-11-06 01:12:00,43.3,40.0,30.17,SSW,205,0.0,0.0,88,0.00,,,0.00,weatherlink.com 1.10,2013-11-06 09:12:00,
2013-11-06 01:27:00,43.2,40.0,30.17,SSW,205,0.0,0.0,88,0.00,,,0.00,weatherlink.com 1.10,2013-11-06 09:27:00,
2013-11-06 01:42:00,42.3,39.0,30.17,SSW,205,0.0,0.0,87,0.00,,,0.00,weatherlink.com 1.10,2013-11-06 09:42:00,
2013-11-06 01:57:00,42.4,40.0,30.18,SSW,205,0.0,0.0,90,0.00,,,0.00,weatherlink.com 1.10,2013-11-06 09:57:00,
2013-11-06 02:14:00,42.5,40.0,30.18,SSW,205,0.0,0.0,89,0.00,,,0.00,weatherlink.com 1.10,2013-11-06 10:14:00,
2013-11-06 02:29:00,42.9,40.0,30.18,SSW,205,0.0,0.0,89,0.00,,,0.00,weatherlink.com 1.10,2013-11-06 10:29:00,
2013-11-06 02:44:00,42.5,40.0,30.18,SSW,205,0.0,0.0,89,0.00,,,0.00,weatherlink.com 1.10,2013-11-06 10:44:00,
2013-11-06 02:59:00,42.3,39.0,30.18,SSW,202,0.0,0.0,88,0.00,,,0.00,weatherlink.com 1.10,2013-11-06 10:59:00,
2013-11-06 03:14:00,42.0,39.0,30.18,SSW,200,0.0,0.0,89,0.00,,,0.00,weatherlink.com 1.10,2013-11-06 11:14:00,
2013-11-06 03:29:00,43.9,41.0,30.18,SSW,201,0.0,0.0,88,0.00,,,0.00,weatherlink.com 1.10,2013-11-06 11:29:00,
2013-11-06 03:44:00,44.4,41.0,30.18,SSW,201,0.0,0.0,86,0.00,,,0.00,weatherlink.com 1.10,2013-11-06 11:44:00,
2013-11-06 03:59:00,43.5,40.0,30.18,SSW,201,0.0,0.0,86,0.00,,,0.00,weatherlink.com 1.10,2013-11-06 11:59:00,
2013-11-06 04:14:00,43.5,40.0,30.18,SSW,200,0.0,0.0,86,0.00,,,0.00,weatherlink.com 1.10,2013-11-06 12:14:00,
2013-11-06 04:29:00,43.2,40.0,30.18,SSW,201,0.0,0.0,87,0.00,,,0.00,weatherlink.com 1.10,2013-11-06 12:29:00,
2013-11-06 04:44:00,42.6,39.0,30.18,SSW,200,0.0,0.0,88,0.00,,,0.00,weatherlink.com 1.10,2013-11-06 12:44:00,
2013-11-06 04:59:00,42.1,39.0,30.18,SSW,201,0.0,0.0,88,0.00,,,0.00,weatherlink.com 1.10,2013-11-06 12:59:00,
2013-11-06 05:14:00,41.6,39.0,30.19,SSW,201,0.0,0.0,89,0.00,,,0.00,weatherlink.com 1.10,2013-11-06 13:14:00,
2013-11-06 05:29:00,41.7,39.0,30.19,SSW,201,0.0,0.0,90,0.00,,,0.00,weatherlink.com 1.10,2013-11-06 13:29:00,
2013-11-06 05:44:00,42.1,40.0,30.19,SSW,200,0.0,0.0,91,0.00,,,0.00,weatherlink.com 1.10,2013-11-06 13:44:00,
2013-11-06 05:59:00,42.1,39.0,30.19,SSW,200,0.0,0.0,90,0.00,,,0.00,weatherlink.com 1.10,2013-11-06 13:59:00,
2013-11-06 06:15:00,42.4,40.0,30.20,SSW,201,0.0,0.0,91,0.00,,,0.00,weatherlink.com 1.10,2013-11-06 14:15:00,
2013-11-06 06:30:00,42.3,40.0,30.20,SSW,200,0.0,0.0,90,0.00,,,0.00,weatherlink.com 1.10,2013-11-06 14:30:00,
2013-11-06 06:45:00,41.7,39.0,30.20,SSW,201,0.0,0.0,90,0.00,,,0.00,weatherlink.com 1.10,2013-11-06 14:45:00,
2013-11-06 07:00:00,41.4,39.0,30.21,SSW,200,0.0,0.0,90,0.00,,,0.00,weatherlink.com 1.10,2013-11-06 15:00:00,
2013-11-06 07:15:00,41.5,39.0,30.21,SSW,200,0.0,0.0,91,0.00,,,0.00,weatherlink.com 1.10,2013-11-06 15:15:00,
2013-11-06 07:30:00,41.6,39.0,30.21,SSW,201,0.0,0.0,91,0.00,,,0.00,weatherlink.com 1.10,2013-11-06 15:30:00,
2013-11-06 07:45:00,40.9,39.0,30.22,SSW,201,0.0,0.0,91,0.00,,,0.00,weatherlink.com 1.10,2013-11-06 15:45:00,
2013-11-06 08:01:00,42.9,41.0,30.23,SSW,201,0.0,0.0,91,0.00,,,0.00,weatherlink.com 1.10,2013-11-06 16:01:00,
2013-11-06 08:16:00,44.7,42.0,30.23,SSW,200,0.0,0.0,91,0.00,,,0.00,weatherlink.com 1.10,2013-11-06 16:16:00,
2013-11-06 08:31:00,45.9,43.0,30.23,SSW,201,0.0,0.0,90,0.00,,,0.00,weatherlink.com 1.10,2013-11-06 16:31:00,
2013-11-06 08:46:00,46.4,43.0,30.23,SSW,201,0.0,0.0,88,0.00,,,0.00,weatherlink.com 1.10,2013-11-06 16:46:00,
2013-11-06 09:16:00,46.8,43.0,30.23,SSW,201,0.0,0.0,85,0.00,,,0.00,weatherlink.com 1.10,2013-11-06 17:16:00,
2013-11-06 09:32:00,47.7,43.0,30.23,SW,222,5.0,7.0,84,0.00,,,0.00,weatherlink.com 1.10,2013-11-06 17:32:00,
2013-11-06 09:47:00,48.7,44.0,30.23,SW,233,0.0,4.0,83,0.00,,,0.00,weatherlink.com 1.10,2013-11-06 17:47:00,
2013-11-06 10:02:00,48.8,44.0,30.24,SW,233,0.0,0.0,82,0.00,,,0.00,weatherlink.com 1.10,2013-11-06 18:02:00,
2013-11-06 10:17:00,49.5,44.0,30.24,SW,234,0.0,0.0,81,0.00,,,0.00,weatherlink.com 1.10,2013-11-06 18:17:00,
2013-11-06 10:32:00,49.9,44.0,30.24,SW,236,0.0,2.0,80,0.00,,,0.00,weatherlink.com 1.10,2013-11-06 18:32:00,
2013-11-06 10:47:00,51.1,44.0,30.23,WSW,242,0.0,1.0,78,0.00,,,0.00,weatherlink.com 1.10,2013-11-06 18:47:00,
2013-11-06 11:02:00,51.6,45.0,30.23,WSW,246,0.0,0.0,78,0.00,,,0.00,weatherlink.com 1.10,2013-11-06 19:02:00,
2013-11-06 11:19:00,52.4,46.0,30.23,WSW,245,0.0,0.0,78,0.00,,,0.00,weatherlink.com 1.10,2013-11-06 19:19:00,
2013-11-06 11:34:00,53.2,46.0,30.22,NW,308,0.0,5.0,77,0.00,,,0.00,weatherlink.com 1.10,2013-11-06 19:34:00,
2013-11-06 11:49:00,53.4,46.0,30.23,NNW,333,0.0,4.0,76,0.00,,,0.00,weatherlink.com 1.10,2013-11-06 19:49:00,
2013-11-06 12:04:00,53.2,46.0,30.22,NNW,340,0.0,5.0,77,0.00,,,0.00,weatherlink.com 1.10,2013-11-06 20:04:00,
2013-11-06 12:19:00,52.2,46.0,30.22,NNW,346,0.0,6.0,79,0.00,,,0.00,weatherlink.com 1.10,2013-11-06 20:19:00,
2013-11-06 12:34:00,51.7,46.0,30.21,North,351,0.0,6.0,80,0.00,,,0.00,weatherlink.com 1.10,2013-11-06 20:34:00,
2013-11-06 12:49:00,51.3,45.0,30.21,North,355,0.0,4.0,80,0.00,,,0.00,weatherlink.com 1.10,2013-11-06 20:49:00,
2013-11-06 13:04:00,51.5,46.0,30.20,North,360,0.0,7.0,82,0.00,,,0.00,weatherlink.com 1.10,2013-11-06 21:04:00,
2013-11-06 13:19:00,51.6,46.0,30.20,North,360,0.0,5.0,80,0.00,,,0.00,weatherlink.com 1.10,2013-11-06 21:19:00,
2013-11-06 13:34:00,51.5,46.0,30.20,North,360,0.0,0.0,82,0.00,,,0.00,weatherlink.com 1.10,2013-11-06 21:34:00,
2013-11-06 13:49:00,51.5,46.0,30.19,North,360,0.0,0.0,82,0.00,,,0.00,weatherlink.com 1.10,2013-11-06 21:49:00,
2013-11-06 14:04:00,51.4,46.0,30.19,North,360,0.0,2.0,82,0.00,,,0.00,weatherlink.com 1.10,2013-11-06 22:04:00,
2013-11-06 14:19:00,51.5,46.0,30.19,North,360,0.0,0.0,81,0.00,,,0.00,weatherlink.com 1.10,2013-11-06 22:19:00,
2013-11-06 14:34:00,51.4,46.0,30.18,North,360,0.0,0.0,81,0.00,,,0.00,weatherlink.com 1.10,2013-11-06 22:34:00,
2013-11-06 14:49:00,51.2,45.0,30.19,North,360,0.0,0.0,80,0.00,,,0.00,weatherlink.com 1.10,2013-11-06 22:49:00,
2013-11-06 15:04:00,50.4,45.0,30.19,North,360,0.0,1.0,82,0.00,,,0.00,weatherlink.com 1.10,2013-11-06 23:04:00,
2013-11-06 15:19:00,50.3,45.0,30.19,North,360,0.0,0.0,82,0.00,,,0.00,weatherlink.com 1.10,2013-11-06 23:19:00,
2013-11-06 15:35:00,50.3,45.0,30.18,North,360,0.0,0.0,82,0.00,,,0.00,weatherlink.com 1.10,2013-11-06 23:35:00,
2013-11-06 15:50:00,50.2,45.0,30.17,North,360,0.0,0.0,83,0.00,,,0.00,weatherlink.com 1.10,2013-11-06 23:50:00,
2013-11-06 16:05:00,49.9,45.0,30.17,North,360,0.0,0.0,84,0.00,,,0.00,weatherlink.com 1.10,2013-11-07 00:05:00,
2013-11-06 16:20:00,49.6,45.0,30.17,North,360,0.0,0.0,85,0.00,,,0.00,weatherlink.com 1.10,2013-11-07 00:20:00,
2013-11-06 16:35:00,49.2,45.0,30.17,North,360,0.0,0.0,86,0.00,,,0.00,weatherlink.com 1.10,2013-11-07 00:35:00,
2013-11-06 16:50:00,48.7,45.0,30.17,North,360,0.0,2.0,87,0.00,,,0.00,weatherlink.com 1.10,2013-11-07 00:50:00,
2013-11-06 17:05:00,48.3,45.0,30.17,North,360,0.0,0.0,89,0.00,,,0.00,weatherlink.com 1.10,2013-11-07 01:05:00,
2013-11-06 17:21:00,48.1,45.0,30.16,North,360,0.0,0.0,90,0.00,,,0.00,weatherlink.com 1.10,2013-11-07 01:21:00,
2013-11-06 17:36:00,47.8,45.0,30.16,North,360,0.0,0.0,90,0.01,,,0.01,weatherlink.com 1.10,2013-11-07 01:36:00,
2013-11-06 17:51:00,47.5,45.0,30.17,North,360,0.0,0.0,90,0.01,,,0.01,weatherlink.com 1.10,2013-11-07 01:51:00,
2013-11-06 18:06:00,47.2,45.0,30.17,North,360,0.0,0.0,91,0.01,,,0.01,weatherlink.com 1.10,2013-11-07 02:06:00,
2013-11-06 18:21:00,46.8,44.0,30.16,North,360,0.0,0.0,91,0.01,,,0.01,weatherlink.com 1.10,2013-11-07 02:21:00,
2013-11-06 18:36:00,46.3,44.0,30.16,North,360,0.0,0.0,92,0.00,,,0.01,weatherlink.com 1.10,2013-11-07 02:36:00,
2013-11-06 18:51:00,46.6,44.0,30.16,North,360,0.0,0.0,92,0.00,,,0.01,weatherlink.com 1.10,2013-11-07 02:51:00,
2013-11-06 19:06:00,46.7,45.0,30.16,North,360,0.0,0.0,93,0.00,,,0.01,weatherlink.com 1.10,2013-11-07 03:06:00,
2013-11-06 19:22:00,46.7,45.0,30.15,North,360,0.0,0.0,93,0.00,,,0.01,weatherlink.com 1.10,2013-11-07 03:22:00,
2013-11-06 19:37:00,46.7,45.0,30.15,North,360,0.0,0.0,93,0.00,,,0.01,weatherlink.com 1.10,2013-11-07 03:37:00,
2013-11-06 19:52:00,46.4,45.0,30.15,North,360,0.0,0.0,93,0.00,,,0.01,weatherlink.com 1.10,2013-11-07 03:52:00,
2013-11-06 20:07:00,46.1,44.0,30.14,North,360,0.0,0.0,93,0.00,,,0.01,weatherlink.com 1.10,2013-11-07 04:07:00,
2013-11-06 20:22:00,46.3,44.0,30.14,North,360,0.0,0.0,93,0.00,,,0.01,weatherlink.com 1.10,2013-11-07 04:22:00,
2013-11-06 20:37:00,46.3,45.0,30.14,North,360,0.0,0.0,94,0.00,,,0.01,weatherlink.com 1.10,2013-11-07 04:37:00,
2013-11-06 20:52:00,46.3,45.0,30.14,North,360,0.0,0.0,94,0.00,,,0.01,weatherlink.com 1.10,2013-11-07 04:52:00,
2013-11-06 21:24:00,46.1,45.0,30.14,North,360,0.0,0.0,94,0.00,,,0.01,weatherlink.com 1.10,2013-11-07 05:24:00,
2013-11-06 21:39:00,46.0,44.0,30.14,North,360,0.0,0.0,94,0.00,,,0.01,weatherlink.com 1.10,2013-11-07 05:39:00,
2013-11-06 21:54:00,46.0,44.0,30.14,North,360,0.0,0.0,94,0.00,,,0.01,weatherlink.com 1.10,2013-11-07 05:54:00,
2013-11-06 22:09:00,45.5,44.0,30.13,North,360,0.0,0.0,94,0.00,,,0.01,weatherlink.com 1.10,2013-11-07 06:09:00,
2013-11-06 22:24:00,45.3,44.0,30.13,North,360,0.0,0.0,94,0.00,,,0.01,weatherlink.com 1.10,2013-11-07 06:24:00,
2013-11-06 22:39:00,45.4,44.0,30.13,North,360,0.0,0.0,94,0.00,,,0.01,weatherlink.com 1.10,2013-11-07 06:39:00,
2013-11-06 22:54:00,45.5,44.0,30.12,North,360,0.0,0.0,94,0.00,,,0.01,weatherlink.com 1.10,2013-11-07 06:54:00,
2013-11-06 23:09:00,45.3,44.0,30.11,North,360,0.0,0.0,94,0.00,,,0.01,weatherlink.com 1.10,2013-11-07 07:09:00,
2013-11-06 23:24:00,45.0,43.0,30.10,North,360,0.0,0.0,94,0.00,,,0.01,weatherlink.com 1.10,2013-11-07 07:24:00,
2013-11-06 23:39:00,44.6,43.0,30.10,North,360,0.0,0.0,94,0.00,,,0.01,weatherlink.com 1.10,2013-11-07 07:39:00,
2013-11-06 23:54:00,44.9,44.0,30.10,North,360,0.0,0.0,95,0.00,,,0.01,weatherlink.com 1.10,2013-11-07 07:54:00,